Weather History for Akron Canton, OH

Change the Weather History Date:

Tuesday, October 9, 2012

  Actual Average Record
Temperature  
Mean Temperature 46 °F 54 °F  
Max Temperature 58 °F 63 °F 86 °F (1939)
Min Temperature 33 °F 45 °F 31 °F (2000)
Degree Days  
Heating Degree Days 19 11  
Month to date heating degree days 102 90  
Since 1 July heating degree days 249 229  
Cooling Degree Days 0 0  
Month to date cooling degree days 0 3  
Year to date cooling degree days 1038 649  
Moisture  
Dew Point 34 °F    
Average Humidity 66    
Maximum Humidity 92    
Minimum Humidity 39    
Precipitation  
Precipitation 0.00 in 0.09 in 1.98 in (1990)
Month to date precipitation 0.96 0.83  
Year to date precipitation 28.64 31.48  
Snow  
Snow 0.00 in 0.00 in - ()
Month to date snowfall 0.0 0.0  
Since 1 July snowfall 0.0 0.0  
Since 1 September snowfall 0.0 0.0  
Snow Depth 0.00 in    
Sea Level Pressure  
Sea Level Pressure 30.12 in    
Wind  
Wind Speed 7 mph (South)    
Max Wind Speed 16 mph    
Max Gust Speed 21 mph    
Visibility 7 miles    
Events      
T = Trace of Precipitation, MM = Missing Value Source: NWS Daily Summary

Daily Weather History Graph

Daily Weather History Graph

Search for Another Location

Airport:

Trip Planner

Search our weather history database for the weather conditions in past years. The results will help you decide how hot, cold, wet, or windy it might be!

Date:

Astronomy

Oct. 09, 2012 Rise Set
Actual Time 7:31 AM EDT 6:53 PM EDT
Civil Twilight 7:03 AM EDT 7:21 PM EDT
Nautical Twilight 6:31 AM EDT 7:53 PM EDT
Astronomical Twilight 6:00 AM EDT 8:24 PM EDT
Moon 1:03 AM EDT (10/9) 3:22 PM EDT (10/9)
Length of Visible Light 12h 17m
Length of Day
11h 22m
Last Quarter, 37% of the Moon is Illuminated
Oct 9
Last Quarter
Oct 15
New
Oct 21
First Quarter
Oct 29
Full
Nov 6
Last Quarter

Hourly Weather History & Observations

Time (EDT) Temp. Windchill Dew Point Humidity Pressure Visibility Wind Dir Wind Speed Gust Speed Precip Events Conditions
12:51 AM 39.0 °F 36.8 °F 33.1 °F 79% 30.20 in 8.0 mi South 3.5 mph - N/A   Clear
1:51 AM 37.9 °F 35.5 °F 33.1 °F 83% 30.20 in 7.0 mi SSE 3.5 mph - N/A   Clear
2:51 AM 36.0 °F 32.1 °F 32.0 °F 86% 30.20 in 7.0 mi SSE 4.6 mph - N/A   Clear
3:51 AM 37.4 °F - 32.0 °F 81% 30.16 in 6.0 mi Calm Calm - N/A   Haze
4:51 AM 36.0 °F - 32.0 °F 86% 30.19 in 5.0 mi Calm Calm - N/A   Clear
5:51 AM 34.0 °F 29.8 °F 30.9 °F 89% 30.19 in 5.0 mi South 4.6 mph - N/A   Clear
6:51 AM 34.0 °F 28.0 °F 30.9 °F 89% 30.20 in 4.0 mi SSE 6.9 mph - N/A   Clear
7:51 AM 33.8 °F 28.6 °F 30.2 °F 87% 30.17 in 4.0 mi SSE 5.8 mph - N/A   Clear
8:51 AM 37.9 °F - 35.1 °F 89% 30.22 in 4.0 mi Calm Calm - N/A   Partly Cloudy
9:51 AM 44.6 °F 39.7 °F 39.2 °F 81% 30.18 in 4.0 mi South 9.2 mph - N/A   Haze
10:51 AM 48.0 °F - 37.0 °F 66% 30.19 in 5.0 mi SSW 10.4 mph - N/A   Haze
11:51 AM 51.1 °F - 36.0 °F 56% 30.18 in 7.0 mi SSW 8.1 mph - N/A   Scattered Clouds
12:51 PM 52.0 °F - 35.1 °F 53% 30.15 in 8.0 mi SSW 6.9 mph - N/A   Scattered Clouds
1:51 PM 55.0 °F - 34.0 °F 45% 30.11 in 9.0 mi SSW 11.5 mph - N/A   Scattered Clouds
2:51 PM 57.0 °F - 35.1 °F 44% 30.08 in 10.0 mi SSW 10.4 mph - N/A   Scattered Clouds
3:51 PM 57.0 °F - 34.0 °F 42% 30.07 in 10.0 mi SSW 9.2 mph - N/A   Partly Cloudy
4:51 PM 57.0 °F - 32.0 °F 39% 30.05 in 10.0 mi South 9.2 mph - N/A   Partly Cloudy
5:51 PM 55.9 °F - 33.1 °F 42% 30.04 in 9.0 mi SSW 9.2 mph - N/A   Partly Cloudy
6:51 PM 50.0 °F - 34.0 °F 54% 30.04 in 9.0 mi South 8.1 mph - N/A   Partly Cloudy
7:51 PM 46.9 °F - 34.0 °F 61% 30.03 in 10.0 mi South 6.9 mph - N/A   Partly Cloudy
8:51 PM 48.0 °F - 34.0 °F 58% 30.02 in 10.0 mi South 9.2 mph - N/A   Clear
9:51 PM 48.9 °F - 35.1 °F 59% 30.01 in 10.0 mi SSW 10.4 mph - N/A   Clear
10:51 PM 46.9 °F - 36.0 °F 66% 30.01 in 10.0 mi SSW 6.9 mph - N/A   Clear
11:51 PM 46.0 °F 41.4 °F 37.0 °F 71% 30.00 in 9.0 mi SSW 9.2 mph - N/A   Clear